This demonstration page uses our WeatherBlox Daily Observations layout. Learn more.

40.92945, -100.16068

Hourly Observations for January 13, 2017

Temp ( °F °C ) Dew Point ( °F °C ) Humidity (%) Winds ( mph kmh ) Pressure ( in mb ) Visibility ( mi km ) Precip ( " mm )
12:15 am 00:15 Cloudy 19 -7.1 11 -11.5 71 71 E 5 7 30.59 1036 10 16.0934 0 0
12:35 am 00:35 Mostly Cloudy 19 -7.1 11 -11.7 70 70 E 8 13 30.59 1036 10 16.0934 0 0
12:55 am 00:55 Cloudy 19 -7.1 11 -11.8 69 69 E 9 15 30.59 1036 10 16.0934 0 0
1:15 am 01:15 Cloudy 19 -7.2 11 -11.9 69 69 E 10 17 30.56 1035 10 16.0934 0 0
1:35 am 01:35 Cloudy 19 -7.3 10 -12.1 69 69 E 10 17 30.62 1037 10 16.0934 0 0
1:55 am 01:55 Partly Cloudy 19 -7.3 10 -12.2 68 68 E 8 13 30.62 1037 10 16.0934 0 0
2:15 am 02:15 Clear 19 -7.4 10 -12.3 68 68 ESE 7 11 30.65 1038 10 16.0934 0 0
2:35 am 02:35 Clear 19 -7.5 10 -12.4 68 68 ESE 8 13 30.65 1038 10 16.0934 0 0
2:55 am 02:55 Clear 18 -7.6 10 -12.2 70 70 ESE 8 13 30.65 1038 10 16.0934 0 0
3:15 am 03:15 Clear 18 -7.6 10 -12 71 71 ESE 7 11 30.65 1038 10 16.0934 0 0
3:35 am 03:35 Clear 18 -7.6 11 -11.7 73 73 ESE 7 11 30.68 1039 10 16.0934 0 0
3:55 am 03:55 Clear 19 -7.5 10 -12.3 69 69 SE 9 15 30.65 1038 10 16.0934 0 0
4:15 am 04:15 Clear 18 -7.6 10 -12.2 70 70 SE 9 15 30.65 1038 10 16.0934 0 0
4:35 am 04:35 Clear 18 -7.6 10 -12.3 69 69 ESE 12 19 30.65 1038 10 16.0934 0 0
4:55 am 04:55 Clear 18 -8 11 -11.5 76 76 E 7 11 30.65 1038 10 16.0934 0 0
5:15 am 05:15 Partly Cloudy 17 -8.5 11 -11.6 79 79 E 9 15 30.65 1038 10 16.0934 0 0
5:35 am 05:35 Mostly Cloudy 17 -8.5 11 -11.6 79 79 E 8 13 30.65 1038 10 16.0934 0 0
5:55 am 05:55 Cloudy 17 -8.5 11 -11.6 79 79 E 8 13 30.65 1038 10 16.0934 0 0
6:15 am 06:15 Cloudy 17 -8.5 11 -11.6 79 79 E 9 15 30.65 1038 10 16.0934 0 0
6:35 am 06:35 Cloudy 17 -8.5 11 -11.6 79 79 E 8 13 30.68 1039 10 16.0934 0 0
6:55 am 06:55 Cloudy 16 -8.7 11 -11.7 79 79 E 9 15 30.68 1039 10 16.0934 0 0
7:15 am 07:15 Cloudy 16 -8.8 11 -11.6 80 80 E 10 17 30.68 1039 10 16.0934 0 0
7:35 am 07:35 Cloudy 16 -9 11 -11.8 80 80 ESE 9 15 30.65 1038 10 16.0934 0 0
7:55 am 07:55 Partly Cloudy 16 -9 11 -11.9 80 80 ESE 8 13 30.68 1039 10 16.0934 0 0
8:15 am 08:15 Sunny 16 -9 10 -12 79 79 ESE 7 11 30.68 1039 10 16.0934 0 0
8:35 am 08:35 Sunny 16 -9 10 -12 79 79 ESE 8 13 30.68 1039 10 16.0934 0 0
8:55 am 08:55 Sunny 16 -9 10 -12 79 79 ESE 8 13 30.68 1039 10 16.0934 0 0
9:15 am 09:15 Sunny 16 -9 10 -12 79 79 ESE 8 13 30.71 1040 10 16.0934 0 0
9:35 am 09:35 Partly Cloudy 16 -8.7 10 -12 77 77 ESE 9 15 30.71 1040 10 16.0934 0 0
9:55 am 09:55 Partly Cloudy 17 -8.5 11 -11.9 77 77 ESE 7 11 30.71 1040 10 16.0934 0 0
10:15 am 10:15 Mostly Cloudy 17 -8.4 11 -11.9 76 76 ESE 6 9 30.71 1040 10 16.0934 0 0
10:35 am 10:35 Mostly Cloudy 18 -8 10 -12 73 73 SSE 9 15 30.74 1041 10 16.0934 0 0
10:55 am 10:55 Cloudy 18 -7.6 11 -11.7 73 73 SE 8 13 30.74 1041 10 16.0934 0 0
11:15 am 11:15 Mostly Cloudy 19 -7.5 10 -12 70 70 SE 8 13 30.74 1041 10 16.0934 0 0
11:35 am 11:35 Partly Cloudy 19 -7.2 10 -12 69 69 SE 9 15 30.71 1040 10 16.0934 0 0
11:55 am 11:55 Sunny 19 -7.1 10 -12 68 68 SSE 8 13 30.71 1040 10 16.0934 0 0
12:15 pm 12:15 Sunny 21 -6.3 11 -11.7 66 66 SE 8 13 30.65 1038 10 16.0934 0 0
12:35 pm 12:35 Sunny 21 -6.2 11 -11.9 64 64 SE 6 9 30.65 1038 10 16.0934 0 0
12:55 pm 12:55 Sunny 22 -5.6 11 -11.8 62 62 SE 8 13 30.62 1037 10 16.0934 0 0
1:15 pm 13:15 Sunny 23 -5.2 10 -12 59 59 SSE 7 11 30.62 1037 10 16.0934 0 0
1:35 pm 13:35 Sunny 23 -4.8 11 -11.9 58 58 SSE 5 7 30.62 1037 10 16.0934 0 0
1:55 pm 13:55 Sunny 24 -4.6 10 -12 57 57 SE 3 6 30.59 1036 10 16.0934 0 0
2:15 pm 14:15 Sunny 25 -4.1 11 -11.6 56 56 SSE 7 11 30.56 1035 10 16.0934 0 0
2:35 pm 14:35 Sunny 25 -3.9 11 -11.6 55 55 S 7 11 30.56 1035 10 16.0934 0 0
2:55 pm 14:55 Sunny 25 -4 11 -11.8 55 55 SSE 6 9 30.56 1035 10 16.0934 0 0
3:15 pm 15:15 Sunny 25 -3.7 11 -11.8 54 54 SE 5 7 30.56 1035 10 16.0934 0 0
3:35 pm 15:35 Sunny 25 -3.8 11 -11.8 54 54 SSE 5 7 30.56 1035 10 16.0934 0 0
3:55 pm 15:55 Sunny 26 -3.6 11 -11.8 53 53 SSE 5 7 30.56 1035 10 16.0934 0 0
4:15 pm 16:15 Sunny 26 -3.6 10 -12 53 53 SSE 6 9 30.56 1035 10 16.0934 0 0
4:35 pm 16:35 Sunny 26 -3.6 10 -12.1 52 52 SSE 5 7 30.56 1035 10 16.0934 0 0
4:55 pm 16:55 Sunny 25 -3.9 10 -12.1 53 53 S 5 7 30.56 1035 10 16.0934 0 0
5:15 pm 17:15 Sunny 24 -4.2 10 -12 55 55 SSE 5 7 30.56 1035 10 16.0934 0 0
5:35 pm 17:35 Clear 23 -4.9 11 -11.6 60 60 SSE 5 7 30.59 1036 10 16.0934 0 0
5:55 pm 17:55 Clear 23 -5 10 -12.1 58 58 Calm 30.59 1036 10 16.0934 0 0
6:15 pm 18:15 Clear 23 -4.9 11 -11.7 59 59 Calm 30.59 1036 10 16.0934 0 0
6:35 pm 18:35 Clear 22 -5.5 12 -11.3 64 64 Calm 30.59 1036 10 16.0934 0 0
6:55 pm 18:55 Clear 21 -6.3 11 -11.5 67 67 Calm 30.59 1036 10 16.0934 0 0
7:15 pm 19:15 Clear 20 -6.5 11 -11.6 67 67 Calm 30.59 1036 10 16.0934 0 0
7:35 pm 19:35 Clear 19 -7.1 11 -11.6 71 71 Calm 30.65 1038 10 16.0934 0 0
7:55 pm 19:55 Clear 20 -6.6 11 -11.6 68 68 Calm 30.62 1037 10 16.0934 0 0
8:15 pm 20:15 Clear 18 -7.8 12 -11.3 76 76 Calm 30.65 1038 10 16.0934 0 0
8:35 pm 20:35 Clear 19 -7.1 12 -11.2 73 73 Calm 30.59 1036 10 16.0934 0 0
8:55 pm 20:55 Clear 19 -7 12 -11.1 73 73 Calm 30.65 1038 10 16.0934 0 0
9:15 pm 21:15 Clear 20 -6.7 13 -10.6 74 74 SSW 3 6 30.62 1037 10 16.0934 0 0
9:35 pm 21:35 Clear 20 -6.5 13 -10.6 73 73 Calm 30.62 1037 10 16.0934 0 0
10:00 pm 22:00 Clear 20 -6.6 13 -10.7 73 73 Calm 30.62 1037 10 16.0934 0 0
10:15 pm 22:15 Clear 20 -6.6 13 -10.8 72 72 Calm 30.62 1037 10 16.0934 0 0
10:35 pm 22:35 Clear 19 -7 12 -10.9 74 74 Calm 30.65 1038 10 16.0934 0 0
10:55 pm 22:55 Clear 19 -7.5 12 -11 76 76 Calm 30.65 1038 10 16.0934 0 0
11:15 pm 23:15 Clear 19 -7.3 12 -10.9 76 76 Calm 30.65 1038 10 16.0934 0 0
11:35 pm 23:35 Clear 18 -7.6 12 -11.1 76 76 SW 3 6 30.65 1038 10 16.0934 0 0
11:55 pm 23:55 Clear 17 -8.2 11 -11.7 76 76 Calm 30.65 1038 10 16.0934 0 0

Powered by AerisWeather